Stations météo

réclame
Mon MeteoGroup
Örskär, Suède (2488): Température de l'air & dewpoint: 16.10.2018 16:00:00 - 22.10.2018 16:00:00 (CEST)Örskär, Suède (2488): Vitesse du vent & gusts: 16.10.2018 16:00:00 - 22.10.2018 16:00:00 (CEST)Örskär, Suède (2488): Direction du vent: 16.10.2018 16:00:00 - 22.10.2018 16:00:00 (CEST)Örskär, Suède (2488): reduced air pressure: 16.10.2018 16:00:00 - 22.10.2018 16:00:00 (CEST)Örskär, Suède (2488): visibility: 16.10.2018 16:00:00 - 22.10.2018 16:00:00 (CEST)Örskär, Suède (2488): Quantités de précipitations: 16.10.2018 16:00:00 - 22.10.2018 16:00:00 (CEST)
Date & Time tt [°C] td [°C] ff [km/h] ff [knt] fx [km/h] fx [knt] dd ppp [hPa] vv [km] rr [mm]
22.10.2018 16:00:00 9,5 2,7 36 20 52 28 W 1008,9 50 0,0
22.10.2018 15:00:00 9,4 2,0 40 21 52 28 W 1008,6 48 0,0
22.10.2018 14:00:00 9,2 2,5 38 21 51 27 W 1008,8 50 0,0
22.10.2018 13:00:00 8,9 2,9 44 24 52 28 W 1008,6 42 0,0
22.10.2018 12:00:00 8,3 3,7 44 24 52 28 W 1008,5 43 0,0
22.10.2018 11:00:00 8,1 4,7 41 22 49 26 WSW 1008,4 49 0,0
22.10.2018 10:00:00 7,7 5,3 38 21 46 25 WSW 1008,6 42 0,0
22.10.2018 09:00:00 7,5 5,5 36 19 43 23 WSW 1008,6 49 0,0
22.10.2018 08:00:00 7,4 6,3 33 18 39 21 WSW 1008,4 46 0,0
22.10.2018 07:00:00 7,3 6,2 21 11 27 15 SSW 1008,1 50 0,0
22.10.2018 06:00:00 7,2 5,8 18 10 26 14 SW 1008,3 50 0,0
22.10.2018 05:00:00 7,8 6,1 16 8 35 19 W 1008,3 50 0,0
22.10.2018 04:00:00 7,6 6,2 21 11 64 35 NW 1007,9 47 0,0
22.10.2018 03:00:00 7,6 6,4 33 18 80 43 NNW 1007,3 43 0,2
22.10.2018 02:00:00 7,4 6,7 56 31 80 43 NNW 1006,4 3,2 1,3
22.10.2018 01:00:00 13,5 10,8 59 32 74 40 SW 1003,9 25 0,0
22.10.2018 00:00:00 13,4 10,8 58 32 74 40 SW 1004,0 50 0,0
21.10.2018 23:00:00 13,1 10,6 60 33 74 40 SSW 1004,4 50 0,0
21.10.2018 22:00:00 12,7 10,6 56 30 68 37 SSW 1006,0 50 0,0
21.10.2018 21:00:00 12,3 10,5 49 27 64 34 SSW 1007,4 48 0,0
21.10.2018 20:00:00 12,1 10,7 51 28 67 36 SSW 1008,4 48 0,0
21.10.2018 19:00:00 11,8 10,7 54 29 67 36 SSW 1009,2 38 0,0
21.10.2018 18:00:00 11,6 10,3 54 29 67 36 SSW 1010,0 37 0,0
21.10.2018 17:00:00 11,2 9,9 42 23 53 29 SSW 1010,8 50 0,0
21.10.2018 16:00:00 11,0 9,4 38 21 56 31 SSW 1011,9 50 0,0
21.10.2018 15:00:00 10,6 8,9 46 25 57 31 SSW 1012,5 50 0,0
21.10.2018 14:00:00 10,1 8,5 42 23 57 31 SSW 1013,4 50 0,0
21.10.2018 13:00:00 9,5 7,8 45 25 56 30 SSW 1014,0 50 0,0
21.10.2018 12:00:00 8,8 7,1 40 22 54 29 SSW 1014,9 44 0,0
21.10.2018 11:00:00 7,9 6,5 42 23 54 29 SW 1016,1 35 0,0
21.10.2018 10:00:00 7,3 5,4 40 22 54 29 SSW 1016,5 29 0,0
21.10.2018 09:00:00 6,6 5,1 35 19 54 29 SSW 1016,9 47 0,0
21.10.2018 08:00:00 6,4 5,2 35 19 49 26 S 1017,2 48 0,0
21.10.2018 07:00:00 6,0 4,8 34 19 49 26 SSW 1017,9 48 0,0
21.10.2018 06:00:00 5,7 5,0 33 18 45 24 SSW 1018,7 25 0,0
21.10.2018 05:00:00 5,2 4,6 32 17 39 21 S 1019,4 18 0,0
21.10.2018 04:00:00 4,7 4,3 27 15 38 21 SSW 1020,0 24 0,0
21.10.2018 03:00:00 4,3 3,9 28 15 38 21 S 1020,4 9 0,0
21.10.2018 02:00:00 4,1 3,5 29 16 35 19 SSW 1021,1 6 0,0
21.10.2018 01:00:00 5,4 4,5 20 11 26 14 SSW 1021,4 50 0,0
21.10.2018 00:00:00 6,2 5,0 16 8 20 11 SSW 1021,5 50 0,0
20.10.2018 23:00:00 6,0 5,0 12 6 18 10 S 1021,5 50 0,0
20.10.2018 22:00:00 6,0 4,3 13 7 18 10 SSW 1021,6 50 0,0
20.10.2018 21:00:00 6,9 4,9 13 7 19 10 WSW 1021,8 50 0,0
20.10.2018 20:00:00 8,0 6,3 13 7 19 10 SW 1021,7 50 0,0
20.10.2018 19:00:00 8,0 6,3 16 8 19 10 SSW 1021,6 50 0,0
20.10.2018 18:00:00 8,5 6,3 16 8 18 10 S 1021,4 50 0,0
20.10.2018 17:00:00 9,7 6,2 12 6 16 9 S 1021,1 50 0,0
20.10.2018 16:00:00 10,6 6,5 11 6 23 12 S 1021,1 44 0,0
20.10.2018 15:00:00 10,3 6,4 14 8 23 12 SSW 1021,1 35 0,0
20.10.2018 14:00:00 10,2 6,2 15 8 21 11 SSW 1021,0 45 0,0
20.10.2018 13:00:00 9,5 5,9 16 9 21 11 SW 1020,9 50 0,0
20.10.2018 12:00:00 8,3 4,9 17 9 21 11 WSW 1021,0 50 0,0
20.10.2018 11:00:00 8,3 3,7 17 9 21 11 WSW 1020,7 50 0,0
20.10.2018 10:00:00 7,5 3,9 13 7 19 10 SSW 1020,0 50 0,0
20.10.2018 09:00:00 7,2 4,0 14 8 25 14 SSW 1019,5 50 0,0
20.10.2018 08:00:00 6,8 3,8 14 8 25 14 SW 1019,2 50 0,0
20.10.2018 07:00:00 6,7 4,2 17 9 23 12 SSW 1019,3 50 0,0
20.10.2018 06:00:00 7,2 4,2 13 7 16 9 S 1019,0 50 0,0
20.10.2018 05:00:00 7,8 4,6 14 8 22 12 SSW 1019,2 50 0,0
20.10.2018 04:00:00 7,7 4,5 12 6 26 14 SSW 1019,3 50 0,0
20.10.2018 03:00:00 7,8 4,2 19 11 28 15 SW 1019,6 50 0,0
20.10.2018 02:00:00 8,1 3,9 23 12 28 15 WSW 1019,8 50 0,0
20.10.2018 01:00:00 7,9 3,7 22 12 29 15 SW 1020,1 50 0,0
20.10.2018 00:00:00 8,2 3,8 23 12 29 15 WSW 1019,8 50 0,0
19.10.2018 23:00:00 8,4 3,6 20 11 25 13 WSW 1020,1 50 0,0
19.10.2018 22:00:00 8,7 3,5 18 10 25 13 WSW 1020,5 50 0,0
19.10.2018 21:00:00 9,2 4,4 20 11 27 15 WSW 1020,6 50 0,0
19.10.2018 20:00:00 9,1 3,8 19 11 27 15 WSW 1020,6 50 0,0
19.10.2018 19:00:00 8,4 3,8 18 10 22 12 WSW 1020,7 50 0,0
19.10.2018 18:00:00 7,9 4,1 18 10 20 11 WSW 1020,7 50 0,0
19.10.2018 17:00:00 7,6 3,8 7 4 14 8 WSW 1021,0 50 0,0
19.10.2018 16:00:00 10,2 3,5 10 6 18 10 SW 1021,3 50 0,0
19.10.2018 15:00:00 10,9 3,4 9 5 26 14 WSW 1021,5 50 0,0
19.10.2018 14:00:00 9,7 3,0 17 9 27 15 W 1021,8 50 0,0
19.10.2018 13:00:00 9,1 2,2 22 12 27 15 W 1022,1 43 0,0
19.10.2018 12:00:00 7,7 3,0 17 9 22 12 W 1022,2 46 0,0
19.10.2018 11:00:00 7,3 2,8 16 8 21 12 WSW 1022,0 37 0,0
19.10.2018 10:00:00 7,0 3,2 16 9 24 13 W 1021,8 45 0,0
19.10.2018 09:00:00 6,7 3,1 20 11 25 13 W 1021,7 50 0,0
19.10.2018 08:00:00 6,5 2,9 22 12 25 13 W 1021,5 50 0,0
19.10.2018 07:00:00 6,4 3,0 19 10 23 12 W 1021,4 50 0,0
19.10.2018 06:00:00 6,0 3,7 14 8 23 12 W 1021,2 50 0,0
19.10.2018 05:00:00 6,9 3,9 17 9 24 13 W 1021,1 50 0,0
19.10.2018 04:00:00 7,3 3,9 16 9 24 13 W 1020,9 50 0,0
19.10.2018 03:00:00 6,7 3,7 15 8 22 12 W 1021,0 50 0,0
19.10.2018 02:00:00 6,1 3,8 11 6 21 11 SW 1020,6 50 0,0
19.10.2018 01:00:00 6,5 4,2 14 8 21 11 SW 1020,7 50 0,0
19.10.2018 00:00:00 5,7 3,5 14 8 21 11 W 1020,4 50 0,0
18.10.2018 23:00:00 7,5 5,3 11 6 24 13 WSW 1020,2 50 0,0
18.10.2018 22:00:00 8,1 5,7 17 9 24 13 WSW 1019,5 50 0,0
18.10.2018 21:00:00 8,2 5,8 18 10 23 12 WSW 1019,3 50 0,0
18.10.2018 20:00:00 8,1 5,4 19 10 21 11 WSW 1018,8 50 0,0
18.10.2018 19:00:00 8,7 6,1 16 8 18 10 SW 1018,2 50 0,0
18.10.2018 18:00:00 7,4 5,9 12 7 14 7 WSW 1018,1 50 0,0
18.10.2018 17:00:00 8,6 6,0 10 6 19 10 NW 1017,6 50 0,0
18.10.2018 16:00:00 9,0 6,4 11 6 31 17 NW 1017,1 44 0,0
18.10.2018 15:00:00 9,2 6,3 16 9 36 19 N 1016,2 33 0,0
18.10.2018 14:00:00 8,9 6,5 28 15 40 22 NNW 1015,8 48 0,0
18.10.2018 13:00:00 9,0 6,8 32 17 40 22 NW 1015,2 50 0,0
18.10.2018 12:00:00 10,8 8,4 31 17 40 22 WNW 1014,2 40 0,0
18.10.2018 11:00:00 11,3 9,2 24 13 34 18 W 1013,8 27 0,0
18.10.2018 10:00:00 11,0 9,6 28 15 34 19 WSW 1013,5 23 0,0
18.10.2018 09:00:00 11,2 9,9 28 15 34 19 WSW 1013,2 18 0,0
18.10.2018 08:00:00 11,3 10,2 27 14 34 18 WSW 1012,8 11 0,0
18.10.2018 07:00:00 11,6 10,5 29 16 34 18 SW 1012,6 9 0,0
18.10.2018 06:00:00 11,8 10,9 30 16 37 20 SW 1012,9 7 0,0
18.10.2018 05:00:00 11,7 10,9 31 17 37 20 SW 1013,1 7 0,0
18.10.2018 04:00:00 11,9 11,0 29 16 34 18 SSW 1013,3 8 0,0
18.10.2018 03:00:00 12,1 11,0 28 15 32 17 SSW 1013,7 9 0,0
18.10.2018 02:00:00 11,9 10,8 24 13 31 17 SSW 1014,1 9 0,0
18.10.2018 01:00:00 12,1 10,8 27 14 32 18 SSW 1014,3 10 0,0
18.10.2018 00:00:00 12,2 11,1 26 14 32 18 SSW 1014,4 12 0,0
17.10.2018 23:00:00 12,3 10,9 27 14 29 15 SSW 1014,7 12 0,0
17.10.2018 22:00:00 12,3 11,0 24 13 27 15 S 1014,7 12 0,0
17.10.2018 21:00:00 12,6 11,0 21 12 31 17 S 1015,0 14 0,0
17.10.2018 20:00:00 12,6 10,8 24 13 33 18 SSW 1015,3 13 0,0
17.10.2018 19:00:00 - - - - 37 20 - - - -
17.10.2018 18:00:00 - - - - 45 24 - - - -
17.10.2018 17:00:00 12,8 10,5 34 18 45 25 SW 1015,1 35 0,0
17.10.2018 16:00:00 12,6 10,3 32 17 45 25 SW 1015,4 28 0,0
17.10.2018 15:00:00 12,8 10,3 36 19 41 22 SW 1015,6 21 0,0
17.10.2018 14:00:00 11,9 10,6 32 17 42 23 SSW 1015,7 8 0,0
17.10.2018 13:00:00 12,1 10,5 28 15 42 23 SSW 1015,8 10 0,0
17.10.2018 12:00:00 12,0 10,4 27 15 36 20 S 1015,6 8 0,0
17.10.2018 11:00:00 12,0 10,1 24 13 31 17 S 1015,9 12 0,0
17.10.2018 10:00:00 11,0 9,9 23 12 29 15 S 1016,0 11 0,0
17.10.2018 09:00:00 10,6 9,7 22 12 30 16 S 1016,2 12 0,0
17.10.2018 08:00:00 10,1 9,3 21 11 30 16 S 1016,1 12 0,0
17.10.2018 07:00:00 10,1 9,2 20 11 29 15 S 1016,1 20 0,0
17.10.2018 06:00:00 10,0 9,1 18 10 27 14 S 1016,3 21 0,0
17.10.2018 05:00:00 9,8 9,0 14 8 25 14 SSE 1016,8 23 0,0
17.10.2018 04:00:00 9,6 8,8 14 7 25 14 SSE 1017,3 49 0,0
17.10.2018 03:00:00 9,5 8,7 15 8 25 14 SSE 1017,7 25 0,0
17.10.2018 02:00:00 9,2 8,4 16 9 22 12 SE 1018,2 50 0,0
17.10.2018 01:00:00 9,0 8,2 9 5 17 9 SSE 1018,9 50 0,0
17.10.2018 00:00:00 8,8 8,0 11 6 18 10 SE 1019,4 45 0,0
16.10.2018 23:00:00 8,4 7,8 13 7 18 10 SE 1019,7 39 0,0
16.10.2018 22:00:00 8,0 7,1 7 4 10 5 E 1020,3 50 0,0
16.10.2018 21:00:00 7,8 6,7 6 3 10 5 ESE 1020,4 50 0,0
16.10.2018 20:00:00 7,6 6,5 5 3 8 4 E 1020,5 50 0,0
16.10.2018 19:00:00 7,5 6,3 4 2 14 8 E 1020,5 50 0,0
16.10.2018 18:00:00 7,4 6,2 3 2 14 8 NNE 1020,6 50 0,0
16.10.2018 17:00:00 7,6 6,2 4 2 14 8 NNW 1020,6 50 0,0
16.10.2018 16:00:00 7,5 5,8 0 0 19 10 N 1020,3 50 0,0

tt = Température de l'air
td = dewpoint
ff = Vitesse du vent
fx = gusts
dd = Direction du vent
ppp = reduced air pressure
vv = visibility
rr = Quantités de précipitations

stations d'obs. à proximité